Flag for India

Past Weather in Tarn Taran Sahib, Punjab, India — Yesterday and Last 2 Weeks

Now
66 °F

Fog.


Feels Like: 66 °F
Forecast: 85 / 58 °F
Wind: 2 mph from North

Location: Amritsar Airport
Current Time: Oct 26, 2020 at 3:57:18 am
Latest Report: Oct 26, 2020 at 3:30 am
Visibility: 2 mi
Pressure29.92 "Hg
Humidity: 88%
Dew Point: 63 °F
Location of Tarn Taran SahibLocation

Past Weather in Tarn Taran Sahib — Graph

°F

Tarn Taran Sahib Temperature Yesterday

Maximum temperature yesterday: 88 °F (at 1:30 pm)
Minimum temperature yesterday: 61 °F (at 4:30 am)
Average temperature yesterday: 74 °F

High & Low Weather Summary for the Past Weeks

 TemperatureHumidityPressure
High95 °F (Oct 11, 2:00 pm)100% (Oct 16, 6:30 am)29.95 "Hg (Oct 16, 6:30 am)
Low59 °F (Oct 22, 7:00 am)27% (Oct 18, 1:30 pm)29.62 "Hg (Oct 12, 5:00 pm)
Average75 °F65%29.79 "Hg
* Reported Oct 11 2:30 am — Oct 26 2:30 am, Tarn Taran Sahib. Weather by CustomWeather, © 2020

Note: Actual official high and low records may vary slightly from our data, if they occured in-between our weather recording intervals... More about our weather records

Tarn Taran Sahib Weather History for the Previous 24 Hours

Scroll right to see more
 ConditionsComfort  
Time TempWeatherWind HumidityBarometerVisibility
2:30 am
Mon, Oct 26
68 °FFog.9 mph78%29.89 "Hg2 mi
2:00 am66 °FFog.7 mph83%29.92 "Hg2 mi
1:30 am68 °FFog.2 mph78%29.92 "Hg2 mi
1:00 am66 °FFog.6 mph78%29.92 "Hg2 mi
12:30 am70 °FPassing clouds.No wind69%29.92 "Hg2 mi
12:00 am70 °FPassing clouds.6 mph69%29.92 "Hg2 mi
11:30 pm
Sun, Oct 25
77 °FPassing clouds.6 mph57%29.92 "Hg2 mi
10:30 pm77 °FPassing clouds.9 mph57%29.92 "Hg2 mi
10:00 pm72 °FPassing clouds.6 mph65%29.92 "Hg2 mi
9:30 pm72 °FPassing clouds.7 mph65%29.92 "Hg2 mi
9:00 pm75 °FHaze.6 mph57%29.89 "Hg2 mi
8:30 pm77 °FHaze.7 mph54%29.89 "Hg2 mi
6:30 pm77 °FHaze.No wind47%29.86 "Hg2 mi
5:30 pm81 °FHaze.No wind39%29.86 "Hg2 mi
5:00 pm82 °FHaze.No wind40%29.86 "Hg2 mi
4:00 pm86 °FHaze.2 mph35%29.86 "Hg2 mi
3:00 pm88 °FHaze.6 mph33%29.86 "Hg2 mi
1:30 pm88 °FHaze.2 mph33%29.89 "Hg2 mi
1:00 pm86 °FHaze.No wind35%29.89 "Hg1 mi
12:30 pm86 °FHaze.No wind35%29.92 "Hg1 mi
12:00 pm84 °FHaze.No wind37%29.92 "Hg1 mi
11:30 am84 °FHaze.No wind37%29.92 "Hg1 mi
11:00 am81 °FHaze.No wind45%29.95 "Hg1 mi
10:30 am77 °FHaze.No wind51%29.95 "Hg1 mi
10:00 am75 °FHaze.No wind54%29.95 "Hg1 mi
9:30 am73 °FHaze.No wind61%29.92 "Hg1 mi
9:00 am72 °FHaze.No wind65%29.92 "Hg1 mi
8:30 am66 °FFog.No wind78%29.92 "Hg1 mi
8:00 am63 °FFog.No wind88%29.89 "Hg1 mi
7:30 am61 °FFog.No wind88%29.89 "Hg1 mi
7:00 am61 °FFog.No wind88%29.86 "Hg1 mi
4:30 am61 °FFog.No wind94%29.83 "Hg2 mi
3:00 am63 °FFog.No wind88%29.83 "Hg2 mi
Weather by CustomWeather, © 2020

See weather overview